Voltar ao catálogo

STARLINK-31092

AtivoComunicaçõesVLEO
NORAD 58628·PAYLOAD·🇺🇸 United States

Lançado Dec 23, 2023 de Cape Canaveral Space Force Station

Loading…

Próximas Passagens (próximas 24 horas)

TLE

AtualizadoSource: CelesTrak SupGP

Época: Sep 14, 2026, 22:37 UTC

1 58628C 23203L   26257.94284722  .00061840  00000+0  22386-2 0  2577
2 58628  42.9996  78.1984 0001404 275.8166 178.4023 15.27566119    10

Acompanhe STARLINK-31092 em tempo real com AllMySat

Download on the App Store